Flag for Canada Weather past 2 weeks in Summerside, Pr.Edward I, Canada

Now
29 °F

Chilly.


Feels Like: 17 °F
Forecast: 15 / 29 °F
Wind: 17 mph from Northwest

Location: Summerside Airport

Current Time: Dec 29, 2014 at 11:15:26 AM

Latest Report: Dec 29, 2014 at 10:00 AM


Visibility: N/A

Pressure: 29.89 "Hg

Humidity: 61%

Dew point: 17 °F

Location of SummersideLocation

Historic Weather in Summerside — Graph

°F

Summerside temperature yesterday

Maximum temperature yesterday: 42 °F (at 4:00 PM)
Minimum temperature yesterday: 30 °F (at 2:00 AM)
Average temperature yesterday: 35 °F

Past Weeks' High & Low Weather Summary

 TemperatureHumidityPressure
High57 °F (Dec 25, 12:00 PM)100% (Dec 15, 12:00 AM)30.50 "Hg (Dec 15, 12:00 AM)
Low27 °F (Dec 22, 2:00 AM)50% (Dec 26, 4:00 PM)29.27 "Hg (Dec 25, 4:00 PM)
Average34 °F76%29.95 "Hg
* Reported Dec 14 10:00 AM — Dec 29 10:00 AM, Summerside, Weather by CustomWeather, © 2014

Note: Actual official high and low records may vary slightly from our data, if they occured in-between our weather recording intervals... More about our weather records

Advertising

Summerside weather history for previous 24 hours

 ConditionsComfort  
Time TempWeatherWind HumidityBarometerVisibility
10:00 AM
Dec 29
29 °FChilly.17 mph61%29.89 "HgN/A
9:00 AM28 °FChilly.12 mph65%29.88 "HgN/A
8:00 AM28 °FChilly.14 mph62%29.86 "HgN/A
7:00 AM28 °FChilly.17 mph65%29.83 "HgN/A
6:00 AM31 °FChilly.14 mph64%29.81 "HgN/A
5:00 AM30 °FChilly.14 mph71%29.78 "HgN/A
4:00 AM31 °FChilly.14 mph68%29.78 "HgN/A
3:00 AM32 °FChilly.15 mph73%29.76 "HgN/A
2:00 AM32 °FChilly.13 mph79%29.73 "HgN/A
1:00 AM31 °FChilly.10 mph85%29.70 "HgN/A
12:00 AM32 °FChilly.9 mph85%29.69 "HgN/A
11:00 PM
Dec 28
32 °FChilly.10 mph86%29.67 "HgN/A
10:00 PM33 °FChilly.13 mph84%29.65 "HgN/A
9:00 PM33 °FChilly.12 mph85%29.64 "HgN/A
8:00 PM36 °FChilly.17 mph82%29.60 "HgN/A
7:00 PM41 °FQuite cool.15 mph87%29.58 "HgN/A
6:00 PM40 °FQuite cool.10 mph87%29.54 "HgN/A
5:00 PM41 °FQuite cool.14 mph84%29.53 "HgN/A
4:00 PM42 °FQuite cool.13 mph91%29.51 "HgN/A
3:00 PM40 °FQuite cool.13 mph91%29.49 "HgN/A
2:00 PM39 °FChilly.10 mph93%29.49 "HgN/A
1:00 PM37 °FChilly.10 mph92%29.52 "HgN/A
12:00 PM36 °FChilly.10 mph92%29.57 "HgN/A
11:00 AM35 °FChilly.13 mph87%29.62 "HgN/A
Weather by CustomWeather, © 2014

See weather overviewHow to use our weather pages